Menu Horizontal
Willkommen auf der Webseite der privaten Wetterstation
von DIRNBERGER - Taufkirchen an der Pram

48°24´29,52" Nord  <>  13°32´13,20" Ost
Wetterdaten - Montag, 23.10.2017 - Taufkirchen an der Pram     336 m ber NN www.spardirnberger.at
Wetterdaten: aktuell Montag, 23.10.2017 17:20
Datum Zeit Temp. A. Feuchte A. Luftdruck Regen Wind Richtung Richtung Sonnenschein Zeit Regen ET UV Solar Windben Empfang
23.10.2017 17:20 8,8 C 90 % 1020,9 hPa 0,0 l/m 3,1 km/h (1 Bft) NW 313 0 min 0 min 0,000 mm 0,0 UV-I 10 W/m 13,1 km/h (3 Bft) 99,57 %
23.10.2017 17:10 8,9 C 90 % 1020,9 hPa 0,0 l/m 2,9 km/h (1 Bft) NW 321 0 min 0 min 0,025 mm 0,0 UV-I 15 W/m 13,1 km/h (3 Bft) 98,31 %
23.10.2017 17:00 8,9 C 89 % 1020,8 hPa 0,0 l/m 4,8 km/h (1 Bft) NW 313 0 min 0 min 0,000 mm 0,0 UV-I 13 W/m 14,9 km/h (3 Bft) 100,00 %
23.10.2017 16:50 9,0 C 88 % 1020,8 hPa 0,0 l/m 7,6 km/h (2 Bft) N-NW 329 0 min 0 min 0,000 mm 0,0 UV-I 11 W/m 16,8 km/h (3 Bft) 100,00 %
23.10.2017 16:40 9,1 C 88 % 1020,6 hPa 0,0 l/m 5,7 km/h (1 Bft) N 351 0 min 0 min 0,000 mm 0,0 UV-I 17 W/m 18,7 km/h (3 Bft) 99,57 %
23.10.2017 16:30 9,1 C 87 % 1020,5 hPa 0,0 l/m 6,4 km/h (2 Bft) NW 319 0 min 0 min 0,000 mm 0,0 UV-I 22 W/m 18,7 km/h (3 Bft) 100,00 %
23.10.2017 16:20 9,2 C 87 % 1020,5 hPa 0,0 l/m 5,3 km/h (1 Bft) N-NW 333 0 min 0 min 0,000 mm 0,0 UV-I 32 W/m 20,6 km/h (4 Bft) 99,15 %
23.10.2017 16:10 9,2 C 87 % 1020,4 hPa 0,0 l/m 8,4 km/h (2 Bft) NW 317 0 min 0 min 0,051 mm 0,0 UV-I 28 W/m 20,6 km/h (4 Bft) 100,00 %
23.10.2017 16:00 9,2 C 87 % 1020,4 hPa 0,0 l/m 6,5 km/h (2 Bft) NW 311 0 min 0 min 0,000 mm 0,0 UV-I 29 W/m 16,8 km/h (3 Bft) 99,57 %
23.10.2017 15:50 9,3 C 86 % 1020,3 hPa 0,0 l/m 9,8 km/h (2 Bft) N 355 0 min 0 min 0,000 mm 0,2 UV-I 51 W/m 26,2 km/h (4 Bft) 99,15 %
23.10.2017 15:40 9,3 C 86 % 1020,1 hPa 0,0 l/m 13,3 km/h (3 Bft) N-NW 346 0 min 0 min 0,000 mm 0,3 UV-I 66 W/m 31,8 km/h (5 Bft) 100,00 %
23.10.2017 15:30 9,2 C 89 % 1020,1 hPa 0,0 l/m 7,9 km/h (2 Bft) NW 310 0 min 0 min 0,000 mm 0,6 UV-I 78 W/m 20,6 km/h (4 Bft) 100,00 %
23.10.2017 15:20 9,1 C 90 % 1020,0 hPa 0,0 l/m 7,9 km/h (2 Bft) W-NW 300 0 min 0 min 0,000 mm 0,6 UV-I 82 W/m 16,8 km/h (3 Bft) 100,00 %
23.10.2017 15:10 8,9 C 91 % 1020,0 hPa 0,0 l/m 3,8 km/h (1 Bft) N-NW 331 0 min 0 min 0,051 mm 0,8 UV-I 132 W/m 16,8 km/h (3 Bft) 100,00 %
23.10.2017 15:00 8,7 C 91 % 1019,9 hPa 0,0 l/m 6,2 km/h (2 Bft) N-NW 348 0 min 0 min 0,000 mm 0,9 UV-I 133 W/m 13,1 km/h (3 Bft) 91,34 %
23.10.2017 14:50 8,7 C 90 % 1019,9 hPa 0,2 l/m 9,0 km/h (2 Bft) N 349 0 min 10 min 0,000 mm 0,4 UV-I 66 W/m 22,4 km/h (4 Bft) 99,57 %
23.10.2017 14:40 8,9 C 88 % 1019,9 hPa 0,4 l/m 12,7 km/h (3 Bft) N 5 0 min 10 min 0,000 mm 0,0 UV-I 49 W/m 28,0 km/h (4 Bft) 100,00 %
23.10.2017 14:30 9,4 C 85 % 1019,8 hPa 0,0 l/m 11,4 km/h (2 Bft) N-NW 346 0 min 0 min 0,000 mm 0,0 UV-I 47 W/m 29,9 km/h (5 Bft) 100,00 %
23.10.2017 14:20 9,4 C 86 % 1019,6 hPa 0,0 l/m 6,0 km/h (2 Bft) NW 319 0 min 0 min 0,000 mm 0,2 UV-I 55 W/m 14,9 km/h (3 Bft) 100,00 %
23.10.2017 14:10 9,3 C 86 % 1019,5 hPa 0,2 l/m 3,6 km/h (1 Bft) W 275 0 min 10 min 0,051 mm 0,5 UV-I 70 W/m 16,8 km/h (3 Bft) 100,00 %
23.10.2017 14:00 9,3 C 86 % 1019,6 hPa 0,0 l/m 3,0 km/h (1 Bft) NW 308 0 min 0 min 0,000 mm 0,7 UV-I 88 W/m 18,7 km/h (3 Bft) 100,00 %
23.10.2017 13:50 9,2 C 87 % 1019,6 hPa 0,0 l/m 1,1 km/h (1 Bft) NW 319 0 min 0 min 0,000 mm 0,8 UV-I 100 W/m 9,3 km/h (2 Bft) 100,00 %
23.10.2017 13:40 9,1 C 86 % 1019,6 hPa 0,0 l/m 3,5 km/h (1 Bft) W-NW 293 0 min 0 min 0,000 mm 0,6 UV-I 75 W/m 13,1 km/h (3 Bft) 100,00 %
23.10.2017 13:30 9,1 C 85 % 1019,6 hPa 0,0 l/m 3,3 km/h (1 Bft) NW 322 0 min 0 min 0,000 mm 0,0 UV-I 40 W/m 14,9 km/h (3 Bft) 99,57 %
23.10.2017 13:20 9,1 C 85 % 1019,7 hPa 0,0 l/m 7,6 km/h (2 Bft) N-NW 342 0 min 0 min 0,000 mm 0,5 UV-I 67 W/m 22,4 km/h (4 Bft) 99,57 %
23.10.2017 13:10 9,1 C 85 % 1019,7 hPa 0,0 l/m 9,7 km/h (2 Bft) N-NW 329 0 min 0 min 0,076 mm 0,8 UV-I 113 W/m 22,4 km/h (4 Bft) 100,00 %
23.10.2017 13:00 9,0 C 88 % 1019,6 hPa 0,0 l/m 8,4 km/h (2 Bft) N-NW 333 10 min 0 min 0,000 mm 1,4 UV-I 198 W/m 18,7 km/h (3 Bft) 100,00 %
23.10.2017 12:50 8,8 C 89 % 1019,6 hPa 0,0 l/m 8,1 km/h (2 Bft) N-NW 348 10 min 0 min 0,000 mm 1,4 UV-I 224 W/m 20,6 km/h (4 Bft) 99,15 %
23.10.2017 12:40 8,6 C 88 % 1019,6 hPa 0,2 l/m 9,9 km/h (2 Bft) W-NW 292 0 min 10 min 0,000 mm 0,9 UV-I 110 W/m 24,3 km/h (4 Bft) 99,57 %
23.10.2017 12:30 8,8 C 87 % 1019,6 hPa 0,0 l/m 10,0 km/h (2 Bft) NW 324 0 min 0 min 0,000 mm 0,8 UV-I 97 W/m 24,3 km/h (4 Bft) 99,57 %
23.10.2017 12:20 8,7 C 88 % 1019,5 hPa 0,0 l/m 8,3 km/h (2 Bft) NW 305 0 min 0 min 0,000 mm 0,9 UV-I 129 W/m 16,8 km/h (3 Bft) 100,00 %
23.10.2017 12:10 8,7 C 88 % 1019,6 hPa 0,2 l/m 8,7 km/h (2 Bft) N 355 0 min 10 min 0,051 mm 0,9 UV-I 130 W/m 22,4 km/h (4 Bft) 100,00 %
23.10.2017 12:00 8,6 C 88 % 1019,5 hPa 0,4 l/m 7,3 km/h (2 Bft) N 355 0 min 10 min 0,000 mm 0,5 UV-I 78 W/m 20,6 km/h (4 Bft) 99,15 %
23.10.2017 11:50 8,8 C 88 % 1019,5 hPa 0,0 l/m 5,2 km/h (1 Bft) N 350 0 min 0 min 0,000 mm 0,8 UV-I 110 W/m 16,8 km/h (3 Bft) 100,00 %
23.10.2017 11:40 8,7 C 87 % 1019,4 hPa 0,2 l/m 10,7 km/h (2 Bft) N-NW 336 0 min 10 min 0,000 mm 0,8 UV-I 108 W/m 22,4 km/h (4 Bft) 100,00 %
23.10.2017 11:30 8,9 C 84 % 1019,4 hPa 0,0 l/m 10,5 km/h (2 Bft) NW 316 0 min 0 min 0,000 mm 0,9 UV-I 108 W/m 28,0 km/h (4 Bft) 100,00 %
23.10.2017 11:20 8,9 C 84 % 1019,3 hPa 0,0 l/m 8,4 km/h (2 Bft) NW 311 0 min 0 min 0,000 mm 0,8 UV-I 97 W/m 24,3 km/h (4 Bft) 99,57 %
23.10.2017 11:10 8,8 C 84 % 1019,4 hPa 0,0 l/m 11,7 km/h (2 Bft) N-NW 331 0 min 0 min 0,025 mm 0,4 UV-I 66 W/m 26,2 km/h (4 Bft) 100,00 %
23.10.2017 11:00 8,8 C 83 % 1019,3 hPa 0,0 l/m 9,6 km/h (2 Bft) N 355 0 min 0 min 0,000 mm 0,0 UV-I 52 W/m 22,4 km/h (4 Bft) 99,57 %
23.10.2017 10:50 8,7 C 84 % 1019,2 hPa 0,0 l/m 8,4 km/h (2 Bft) N-NO 15 0 min 0 min 0,000 mm 0,0 UV-I 30 W/m 22,4 km/h (4 Bft) 99,57 %
23.10.2017 10:40 8,7 C 83 % 1019,2 hPa 0,0 l/m 10,9 km/h (2 Bft) NW 319 0 min 0 min 0,000 mm 0,0 UV-I 33 W/m 31,8 km/h (5 Bft) 99,57 %
23.10.2017 10:30 8,8 C 84 % 1019,1 hPa 0,0 l/m 8,1 km/h (2 Bft) W-NW 292 0 min 0 min 0,000 mm 0,0 UV-I 26 W/m 20,6 km/h (4 Bft) 99,15 %
23.10.2017 10:20 8,8 C 84 % 1019,2 hPa 0,0 l/m 9,6 km/h (2 Bft) NW 325 0 min 0 min 0,000 mm 0,5 UV-I 78 W/m 24,3 km/h (4 Bft) 99,53 %
23.10.2017 10:11 8,8 C 85 % 1019,2 hPa 0,0 l/m 7,6 km/h (2 Bft) W-NW 294 0 min 0 min 0,000 mm 0,5 UV-I 75 W/m 22,4 km/h (4 Bft) 99,62 %
23.10.2017 10:00 8,7 C 85 % 1019,2 hPa 0,0 l/m 8,2 km/h (2 Bft) NW 306 0 min 0 min 0,026 mm 0,4 UV-I 62 W/m 22,4 km/h (4 Bft) 99,15 %
23.10.2017 09:50 8,6 C 85 % 1019,1 hPa 0,0 l/m 5,2 km/h (1 Bft) NW 321 0 min 0 min 0,000 mm 0,4 UV-I 60 W/m 14,9 km/h (3 Bft) 99,13 %
23.10.2017 09:40 8,5 C 86 % 1019,1 hPa 0,0 l/m 5,6 km/h (1 Bft) W-NW 292 0 min 0 min 0,000 mm 0,0 UV-I 44 W/m 18,7 km/h (3 Bft) 100,00 %
23.10.2017 09:30 8,4 C 86 % 1019,0 hPa 0,0 l/m 5,6 km/h (1 Bft) NW 315 0 min 0 min 0,000 mm 0,0 UV-I 62 W/m 11,3 km/h (2 Bft) 100,00 %
23.10.2017 09:25 8,4 C 86 % 1019,0 hPa 0,0 l/m 3,7 km/h (1 Bft) NW 315 0 min 0 min 0,000 mm 0,0 UV-I 53 W/m 12,9 km/h (3 Bft) 100,00 %
23.10.2017 09:20 8,4 C 86 % 1018,9 hPa 0,0 l/m 3,7 km/h (1 Bft) NW 315 0 min 0 min 0,000 mm 0,5 UV-I 81 W/m 14,5 km/h (3 Bft) 100,00 %
23.10.2017 09:15 8,3 C 86 % 1018,9 hPa 0,0 l/m 5,6 km/h (1 Bft) NW 315 0 min 0 min 0,000 mm 0,5 UV-I 79 W/m 11,3 km/h (2 Bft) 100,00 %
23.10.2017 09:10 8,3 C 86 % 1018,8 hPa 0,0 l/m 5,6 km/h (1 Bft) NW 315 0 min 0 min 0,000 mm 0,5 UV-I 56 W/m 16,1 km/h (3 Bft) 100,00 %
23.10.2017 09:05 8,4 C 86 % 1018,8 hPa 0,0 l/m 7,5 km/h (2 Bft) N-NW 337 0 min 0 min 0,000 mm 0,0 UV-I 40 W/m 14,5 km/h (3 Bft) 100,00 %
23.10.2017 09:00 8,4 C 86 % 1018,7 hPa 0,0 l/m 7,5 km/h (2 Bft) NW 315 0 min 0 min 0,025 mm 0,0 UV-I 42 W/m 19,3 km/h (3 Bft) 100,00 %
23.10.2017 08:55 8,4 C 86 % 1018,7 hPa 0,0 l/m 7,5 km/h (2 Bft) NW 315 0 min 0 min 0,000 mm 0,0 UV-I 44 W/m 16,1 km/h (3 Bft) 100,00 %
23.10.2017 08:50 8,4 C 87 % 1018,7 hPa 0,0 l/m 7,5 km/h (2 Bft) NW 315 0 min 0 min 0,000 mm 0,0 UV-I 44 W/m 14,5 km/h (3 Bft) 100,00 %
23.10.2017 08:45 8,4 C 87 % 1018,7 hPa 0,0 l/m 7,5 km/h (2 Bft) NW 315 0 min 0 min 0,000 mm 0,0 UV-I 44 W/m 14,5 km/h (3 Bft) 83,33 %
23.10.2017 08:40 8,4 C 87 % 1018,6 hPa 0,0 l/m 7,5 km/h (2 Bft) NW 315 0 min 0 min 0,000 mm 0,0 UV-I 40 W/m 12,9 km/h (3 Bft) 100,00 %
23.10.2017 08:35 8,4 C 87 % 1018,6 hPa 0,0 l/m 7,5 km/h (2 Bft) W-NW 292 0 min 0 min 0,000 mm 0,0 UV-I 35 W/m 14,5 km/h (3 Bft) 100,00 %
23.10.2017 08:30 8,4 C 87 % 1018,6 hPa 0,0 l/m 5,6 km/h (1 Bft) NW 315 0 min 0 min 0,000 mm 0,0 UV-I 32 W/m 17,7 km/h (3 Bft) 100,00 %
23.10.2017 08:25 8,4 C 87 % 1018,6 hPa 0,0 l/m 3,7 km/h (1 Bft) NW 315 0 min 0 min 0,000 mm 0,0 UV-I 39 W/m 16,1 km/h (3 Bft) 100,00 %
23.10.2017 08:20 8,3 C 87 % 1018,5 hPa 0,0 l/m 9,3 km/h (2 Bft) NW 315 0 min 0 min 0,000 mm 0,0 UV-I 35 W/m 17,7 km/h (3 Bft) 100,00 %
23.10.2017 08:15 8,3 C 87 % 1018,5 hPa 0,0 l/m 5,6 km/h (1 Bft) NW 315 0 min 0 min 0,000 mm 0,0 UV-I 16 W/m 11,3 km/h (2 Bft) 100,00 %
23.10.2017 08:10 8,3 C 87 % 1018,3 hPa 0,0 l/m 7,5 km/h (2 Bft) NW 315 0 min 0 min 0,000 mm 0,0 UV-I 11 W/m 20,9 km/h (4 Bft) 100,00 %
23.10.2017 08:05 8,3 C 87 % 1018,4 hPa 0,0 l/m 5,6 km/h (1 Bft) NW 315 0 min 0 min 0,000 mm 0,0 UV-I 11 W/m 12,9 km/h (3 Bft) 100,00 %
23.10.2017 08:00 8,4 C 87 % 1018,4 hPa 0,0 l/m 7,5 km/h (2 Bft) NW 315 0 min 0 min 0,000 mm 0,0 UV-I 7 W/m 17,7 km/h (3 Bft) 100,00 %
23.10.2017 07:55 8,4 C 87 % 1018,4 hPa 0,0 l/m 5,6 km/h (1 Bft) N-NW 337 0 min 0 min 0,000 mm 0,0 UV-I 0 W/m 11,3 km/h (2 Bft) 100,00 %
23.10.2017 07:50 8,4 C 87 % 1018,3 hPa 0,0 l/m 5,6 km/h (1 Bft) N-NW 337 0 min 0 min 0,000 mm 0,0 UV-I 0 W/m 14,5 km/h (3 Bft) 100,00 %
23.10.2017 07:45 8,4 C 87 % 1018,2 hPa 0,0 l/m 7,5 km/h (2 Bft) NW 315 0 min 0 min 0,000 mm 0,0 UV-I 0 W/m 19,3 km/h (3 Bft) 100,00 %
23.10.2017 07:40 8,4 C 87 % 1018,2 hPa 0,0 l/m 5,6 km/h (1 Bft) NW 315 0 min 0 min 0,000 mm 0,0 UV-I 0 W/m 14,5 km/h (3 Bft) 100,00 %
23.10.2017 07:35 8,4 C 87 % 1018,1 hPa 0,0 l/m 5,6 km/h (1 Bft) NW 315 0 min 0 min 0,000 mm 0,0 UV-I 0 W/m 11,3 km/h (2 Bft) 100,00 %
23.10.2017 07:30 8,4 C 87 % 1018,1 hPa 0,0 l/m 3,7 km/h (1 Bft) NW 315 0 min 0 min 0,000 mm 0,0 UV-I 0 W/m 11,3 km/h (2 Bft) 100,00 %
23.10.2017 07:25 8,4 C 88 % 1018,1 hPa 0,0 l/m 1,9 km/h (1 Bft) NW 315 0 min 0 min 0,000 mm 0,0 UV-I 0 W/m 9,7 km/h (2 Bft) 100,00 %
23.10.2017 07:20 8,4 C 88 % 1018,0 hPa 0,0 l/m 3,7 km/h (1 Bft) W-NW 292 0 min 0 min 0,000 mm 0,0 UV-I 0 W/m 8,0 km/h (2 Bft) 100,00 %
23.10.2017 07:15 8,4 C 88 % 1018,0 hPa 0,0 l/m 1,9 km/h (1 Bft) NW 315 0 min 0 min 0,000 mm 0,0 UV-I 0 W/m 9,7 km/h (2 Bft) 100,00 %
23.10.2017 07:10 8,4 C 88 % 1018,0 hPa 0,0 l/m 3,7 km/h (1 Bft) NW 315 0 min 0 min 0,000 mm 0,0 UV-I 0 W/m 11,3 km/h (2 Bft) 84,21 %
23.10.2017 07:05 8,4 C 88 % 1017,9 hPa 0,0 l/m 1,9 km/h (1 Bft) NW 315 0 min 0 min 0,000 mm 0,0 UV-I 0 W/m 9,7 km/h (2 Bft) 100,00 %
23.10.2017 07:00 8,4 C 88 % 1018,0 hPa 0,0 l/m 1,9 km/h (1 Bft) NW 315 0 min 0 min 0,000 mm 0,0 UV-I 0 W/m 9,7 km/h (2 Bft) 100,00 %
23.10.2017 06:55 8,4 C 88 % 1017,9 hPa 0,0 l/m 5,6 km/h (1 Bft) NW 315 0 min 0 min 0,000 mm 0,0 UV-I 0 W/m 14,5 km/h (3 Bft) 100,00 %
23.10.2017 06:50 8,4 C 88 % 1017,9 hPa 0,0 l/m 5,6 km/h (1 Bft) N-NW 337 0 min 0 min 0,000 mm 0,0 UV-I 0 W/m 12,9 km/h (3 Bft) 100,00 %
23.10.2017 06:45 8,4 C 88 % 1017,9 hPa 0,0 l/m 3,7 km/h (1 Bft) NW 315 0 min 0 min 0,000 mm 0,0 UV-I 0 W/m 12,9 km/h (3 Bft) 100,00 %
23.10.2017 06:40 8,4 C 88 % 1017,9 hPa 0,0 l/m 1,9 km/h (1 Bft) NW 315 0 min 0 min 0,000 mm 0,0 UV-I 0 W/m 8,0 km/h (2 Bft) 100,00 %
23.10.2017 06:35 8,4 C 88 % 1017,9 hPa 0,0 l/m 3,7 km/h (1 Bft) NW 315 0 min 0 min 0,000 mm 0,0 UV-I 0 W/m 12,9 km/h (3 Bft) 100,00 %
23.10.2017 06:30 8,3 C 88 % 1017,9 hPa 0,0 l/m 3,7 km/h (1 Bft) NW 315 0 min 0 min 0,000 mm 0,0 UV-I 0 W/m 12,9 km/h (3 Bft) 100,00 %
23.10.2017 06:25 8,4 C 88 % 1017,9 hPa 0,0 l/m 5,6 km/h (1 Bft) NW 315 0 min 0 min 0,000 mm 0,0 UV-I 0 W/m 16,1 km/h (3 Bft) 100,00 %
23.10.2017 06:20 8,4 C 88 % 1017,9 hPa 0,0 l/m 7,5 km/h (2 Bft) NW 315 0 min 0 min 0,000 mm 0,0 UV-I 0 W/m 12,9 km/h (3 Bft) 100,00 %
23.10.2017 06:15 8,3 C 88 % 1017,8 hPa 0,0 l/m 3,7 km/h (1 Bft) NW 315 0 min 0 min 0,000 mm 0,0 UV-I 0 W/m 11,3 km/h (2 Bft) 100,00 %
23.10.2017 06:10 8,3 C 88 % 1017,8 hPa 0,0 l/m 7,5 km/h (2 Bft) NW 315 0 min 0 min 0,000 mm 0,0 UV-I 0 W/m 12,9 km/h (3 Bft) 100,00 %
23.10.2017 06:05 8,3 C 88 % 1017,8 hPa 0,0 l/m 5,6 km/h (1 Bft) NW 315 0 min 0 min 0,000 mm 0,0 UV-I 0 W/m 17,7 km/h (3 Bft) 100,00 %
23.10.2017 06:00 8,3 C 89 % 1017,8 hPa 0,0 l/m 5,6 km/h (1 Bft) NW 315 0 min 0 min 0,000 mm 0,0 UV-I 0 W/m 11,3 km/h (2 Bft) 100,00 %
23.10.2017 05:55 8,3 C 89 % 1017,8 hPa 0,0 l/m 5,6 km/h (1 Bft) NW 315 0 min 0 min 0,000 mm 0,0 UV-I 0 W/m 14,5 km/h (3 Bft) 100,00 %
23.10.2017 05:50 8,3 C 89 % 1017,7 hPa 0,0 l/m 3,7 km/h (1 Bft) NW 315 0 min 0 min 0,000 mm 0,0 UV-I 0 W/m 9,7 km/h (2 Bft) 100,00 %
23.10.2017 05:45 8,3 C 89 % 1017,6 hPa 0,0 l/m 1,9 km/h (1 Bft) NW 315 0 min 0 min 0,000 mm 0,0 UV-I 0 W/m 9,7 km/h (2 Bft) 100,00 %
23.10.2017 05:40 8,2 C 89 % 1017,6 hPa 0,0 l/m 1,9 km/h (1 Bft) N-NW 337 0 min 0 min 0,000 mm 0,0 UV-I 0 W/m 11,3 km/h (2 Bft) 100,00 %
23.10.2017 05:35 8,2 C 90 % 1017,6 hPa 0,0 l/m 1,9 km/h (1 Bft) NW 315 0 min 0 min 0,000 mm 0,0 UV-I 0 W/m 6,4 km/h (2 Bft) 100,00 %
23.10.2017 05:30 8,2 C 90 % 1017,5 hPa 0,0 l/m 1,9 km/h (1 Bft) NW 315 0 min 0 min 0,000 mm 0,0 UV-I 0 W/m 8,0 km/h (2 Bft) 100,00 %
23.10.2017 05:25 8,2 C 90 % 1017,5 hPa 0,0 l/m 3,7 km/h (1 Bft) W-NW 292 0 min 0 min 0,000 mm 0,0 UV-I 0 W/m 12,9 km/h (3 Bft) 100,00 %
23.10.2017 05:20 8,2 C 90 % 1017,5 hPa 0,0 l/m 3,7 km/h (1 Bft) NW 315 0 min 0 min 0,000 mm 0,0 UV-I 0 W/m 9,7 km/h (2 Bft) 100,00 %
23.10.2017 05:15 8,2 C 90 % 1017,5 hPa 0,0 l/m 3,7 km/h (1 Bft) NW 315 0 min 0 min 0,000 mm 0,0 UV-I 0 W/m 9,7 km/h (2 Bft) 100,00 %
23.10.2017 05:10 8,2 C 90 % 1017,5 hPa 0,0 l/m 1,9 km/h (1 Bft) N-NW 337 0 min 0 min 0,000 mm 0,0 UV-I 0 W/m 8,0 km/h (2 Bft) 100,00 %
23.10.2017 05:05 8,1 C 90 % 1017,5 hPa 0,0 l/m 1,9 km/h (1 Bft) NW 315 0 min 0 min 0,000 mm 0,0 UV-I 0 W/m 11,3 km/h (2 Bft) 100,00 %
23.10.2017 05:00 8,1 C 90 % 1017,4 hPa 0,0 l/m 3,7 km/h (1 Bft) NW 315 0 min 0 min 0,000 mm 0,0 UV-I 0 W/m 12,9 km/h (3 Bft) 100,00 %
23.10.2017 04:55 8,1 C 91 % 1017,4 hPa 0,0 l/m 5,6 km/h (1 Bft) NW 315 0 min 0 min 0,000 mm 0,0 UV-I 0 W/m 14,5 km/h (3 Bft) 100,00 %
23.10.2017 04:50 8,1 C 91 % 1017,4 hPa 0,0 l/m 1,9 km/h (1 Bft) NW 315 0 min 0 min 0,000 mm 0,0 UV-I 0 W/m 8,0 km/h (2 Bft) 100,00 %
23.10.2017 04:45 8,0 C 91 % 1017,4 hPa 0,0 l/m 1,9 km/h (1 Bft) NW 315 0 min 0 min 0,000 mm 0,0 UV-I 0 W/m 9,7 km/h (2 Bft) 100,00 %
23.10.2017 04:40 8,0 C 91 % 1017,4 hPa 0,0 l/m 1,9 km/h (1 Bft) N-NW 337 0 min 0 min 0,000 mm 0,0 UV-I 0 W/m 6,4 km/h (2 Bft) 100,00 %
23.10.2017 04:35 7,9 C 91 % 1017,3 hPa 0,0 l/m 1,9 km/h (1 Bft) N-NW 337 0 min 0 min 0,000 mm 0,0 UV-I 0 W/m 8,0 km/h (2 Bft) 100,00 %
23.10.2017 04:30 7,9 C 91 % 1017,2 hPa 0,0 l/m 5,6 km/h (1 Bft) NW 315 0 min 0 min 0,000 mm 0,0 UV-I 0 W/m 14,5 km/h (3 Bft) 100,00 %
23.10.2017 04:25 7,9 C 92 % 1017,2 hPa 0,0 l/m 1,9 km/h (1 Bft) NW 315 0 min 0 min 0,000 mm 0,0 UV-I 0 W/m 11,3 km/h (2 Bft) 100,00 %
23.10.2017 04:20 7,9 C 92 % 1017,2 hPa 0,0 l/m 1,9 km/h (1 Bft) NW 315 0 min 0 min 0,000 mm 0,0 UV-I 0 W/m 8,0 km/h (2 Bft) 100,00 %
23.10.2017 04:15 7,9 C 92 % 1017,1 hPa 0,0 l/m 3,7 km/h (1 Bft) NW 315 0 min 0 min 0,000 mm 0,0 UV-I 0 W/m 8,0 km/h (2 Bft) 94,74 %
23.10.2017 04:10 7,9 C 92 % 1017,0 hPa 0,0 l/m 1,9 km/h (1 Bft) NW 315 0 min 0 min 0,000 mm 0,0 UV-I 0 W/m 9,7 km/h (2 Bft) 90,35 %
23.10.2017 04:05 7,9 C 92 % 1017,0 hPa 0,0 l/m 3,7 km/h (1 Bft) NW 315 0 min 0 min 0,000 mm 0,0 UV-I 0 W/m 12,9 km/h (3 Bft) 100,00 %
23.10.2017 04:00 7,9 C 92 % 1017,0 hPa 0,0 l/m 1,9 km/h (1 Bft) NW 315 0 min 0 min 0,000 mm 0,0 UV-I 0 W/m 8,0 km/h (2 Bft) 100,00 %
23.10.2017 03:55 7,9 C 92 % 1017,0 hPa 0,0 l/m 1,9 km/h (1 Bft) NW 315 0 min 0 min 0,000 mm 0,0 UV-I 0 W/m 8,0 km/h (2 Bft) 100,00 %
23.10.2017 03:50 8,0 C 91 % 1017,0 hPa 0,2 l/m 1,9 km/h (1 Bft) NW 315 0 min 5 min 0,000 mm 0,0 UV-I 0 W/m 6,4 km/h (2 Bft) 100,00 %
23.10.2017 03:45 8,0 C 91 % 1016,9 hPa 0,0 l/m 3,7 km/h (1 Bft) NW 315 0 min 0 min 0,000 mm 0,0 UV-I 0 W/m 8,0 km/h (2 Bft) 100,00 %
23.10.2017 03:40 8,1 C 91 % 1016,9 hPa 0,0 l/m 3,7 km/h (1 Bft) NW 315 0 min 0 min 0,000 mm 0,0 UV-I 0 W/m 14,5 km/h (3 Bft) 100,00 %
23.10.2017 03:35 8,1 C 91 % 1016,9 hPa 0,0 l/m 3,7 km/h (1 Bft) W-NW 292 0 min 0 min 0,000 mm 0,0 UV-I 0 W/m 14,5 km/h (3 Bft) 100,00 %
23.10.2017 03:30 8,1 C 91 % 1016,8 hPa 0,0 l/m 3,7 km/h (1 Bft) NW 315 0 min 0 min 0,000 mm 0,0 UV-I 0 W/m 9,7 km/h (2 Bft) 100,00 %
23.10.2017 03:25 8,1 C 91 % 1016,8 hPa 0,0 l/m 3,7 km/h (1 Bft) NW 315 0 min 0 min 0,000 mm 0,0 UV-I 0 W/m 8,0 km/h (2 Bft) 100,00 %
23.10.2017 03:20 8,1 C 91 % 1016,9 hPa 0,0 l/m 1,9 km/h (1 Bft) NW 315 0 min 0 min 0,000 mm 0,0 UV-I 0 W/m 6,4 km/h (2 Bft) 100,00 %
23.10.2017 03:15 8,1 C 91 % 1017,0 hPa 0,0 l/m 5,6 km/h (1 Bft) NW 315 0 min 0 min 0,000 mm 0,0 UV-I 0 W/m 8,0 km/h (2 Bft) 100,00 %
23.10.2017 03:10 8,0 C 91 % 1017,0 hPa 0,0 l/m 1,9 km/h (1 Bft) NW 315 0 min 0 min 0,000 mm 0,0 UV-I 0 W/m 9,7 km/h (2 Bft) 100,00 %
23.10.2017 03:05 8,0 C 91 % 1017,0 hPa 0,0 l/m 1,9 km/h (1 Bft) NW 315 0 min 0 min 0,000 mm 0,0 UV-I 0 W/m 11,3 km/h (2 Bft) 100,00 %
23.10.2017 03:00 8,0 C 91 % 1017,0 hPa 0,0 l/m 1,9 km/h (1 Bft) NW 315 0 min 0 min 0,000 mm 0,0 UV-I 0 W/m 9,7 km/h (2 Bft) 100,00 %
23.10.2017 02:55 8,0 C 91 % 1017,0 hPa 0,0 l/m 3,7 km/h (1 Bft) NW 315 0 min 0 min 0,000 mm 0,0 UV-I 0 W/m 9,7 km/h (2 Bft) 100,00 %
23.10.2017 02:50 8,0 C 91 % 1017,0 hPa 0,0 l/m 3,7 km/h (1 Bft) NW 315 0 min 0 min 0,000 mm 0,0 UV-I 0 W/m 9,7 km/h (2 Bft) 100,00 %
23.10.2017 02:45 8,0 C 91 % 1017,0 hPa 0,0 l/m 5,6 km/h (1 Bft) NW 315 0 min 0 min 0,000 mm 0,0 UV-I 0 W/m 9,7 km/h (2 Bft) 100,00 %
23.10.2017 02:40 8,0 C 92 % 1017,0 hPa 0,0 l/m 1,9 km/h (1 Bft) NW 315 0 min 0 min 0,000 mm 0,0 UV-I 0 W/m 11,3 km/h (2 Bft) 100,00 %
23.10.2017 02:35 8,0 C 92 % 1017,0 hPa 0,0 l/m 1,9 km/h (1 Bft) NW 315 0 min 0 min 0,000 mm 0,0 UV-I 0 W/m 11,3 km/h (2 Bft) 100,00 %
23.10.2017 02:30 7,9 C 92 % 1017,1 hPa 0,0 l/m 3,7 km/h (1 Bft) NW 315 0 min 0 min 0,000 mm 0,0 UV-I 0 W/m 8,0 km/h (2 Bft) 100,00 %
23.10.2017 02:25 7,9 C 92 % 1017,1 hPa 0,0 l/m 5,6 km/h (1 Bft) NW 315 0 min 0 min 0,000 mm 0,0 UV-I 0 W/m 11,3 km/h (2 Bft) 100,00 %
23.10.2017 02:20 8,0 C 92 % 1017,1 hPa 0,0 l/m 1,9 km/h (1 Bft) NW 315 0 min 0 min 0,000 mm 0,0 UV-I 0 W/m 8,0 km/h (2 Bft) 100,00 %
23.10.2017 02:15 8,0 C 92 % 1017,1 hPa 0,0 l/m 1,9 km/h (1 Bft) NW 315 0 min 0 min 0,000 mm 0,0 UV-I 0 W/m 8,0 km/h (2 Bft) 100,00 %
23.10.2017 02:10 8,0 C 92 % 1017,2 hPa 0,0 l/m 1,9 km/h (1 Bft) NW 315 0 min 0 min 0,000 mm 0,0 UV-I 0 W/m 6,4 km/h (2 Bft) 100,00 %
23.10.2017 02:05 8,0 C 91 % 1017,1 hPa 0,0 l/m 1,9 km/h (1 Bft) NW 315 0 min 0 min 0,000 mm 0,0 UV-I 0 W/m 6,4 km/h (2 Bft) 100,00 %
23.10.2017 02:00 8,1 C 91 % 1017,1 hPa 0,0 l/m 1,9 km/h (1 Bft) NW 315 0 min 0 min 0,000 mm 0,0 UV-I 0 W/m 6,4 km/h (2 Bft) 100,00 %
23.10.2017 01:55 8,1 C 91 % 1017,1 hPa 0,0 l/m 1,9 km/h (1 Bft) NW 315 0 min 0 min 0,000 mm 0,0 UV-I 0 W/m 4,8 km/h (1 Bft) 100,00 %
23.10.2017 01:50 8,1 C 91 % 1017,1 hPa 0,0 l/m 1,9 km/h (1 Bft) NW 315 0 min 0 min 0,000 mm 0,0 UV-I 0 W/m 6,4 km/h (2 Bft) 100,00 %
23.10.2017 01:45 8,2 C 90 % 1017,2 hPa 0,2 l/m 1,9 km/h (1 Bft) NW 315 0 min 5 min 0,000 mm 0,0 UV-I 0 W/m 11,3 km/h (2 Bft) 100,00 %
23.10.2017 01:40 8,2 C 90 % 1017,1 hPa 0,0 l/m 1,9 km/h (1 Bft) NW 315 0 min 0 min 0,000 mm 0,0 UV-I 0 W/m 8,0 km/h (2 Bft) 100,00 %
23.10.2017 01:35 8,2 C 90 % 1017,1 hPa 0,0 l/m 5,6 km/h (1 Bft) NW 315 0 min 0 min 0,000 mm 0,0 UV-I 0 W/m 11,3 km/h (2 Bft) 100,00 %
23.10.2017 01:30 8,2 C 89 % 1017,2 hPa 0,0 l/m 3,7 km/h (1 Bft) NW 315 0 min 0 min 0,000 mm 0,0 UV-I 0 W/m 8,0 km/h (2 Bft) 100,00 %
23.10.2017 01:25 8,3 C 89 % 1017,2 hPa 0,0 l/m 3,7 km/h (1 Bft) NW 315 0 min 0 min 0,000 mm 0,0 UV-I 0 W/m 12,9 km/h (3 Bft) 100,00 %
23.10.2017 01:20 8,3 C 89 % 1017,2 hPa 0,0 l/m 3,7 km/h (1 Bft) NW 315 0 min 0 min 0,000 mm 0,0 UV-I 0 W/m 9,7 km/h (2 Bft) 100,00 %
23.10.2017 01:15 8,3 C 89 % 1017,2 hPa 0,0 l/m 3,7 km/h (1 Bft) NW 315 0 min 0 min 0,000 mm 0,0 UV-I 0 W/m 8,0 km/h (2 Bft) 100,00 %
23.10.2017 01:10 8,3 C 88 % 1017,3 hPa 0,0 l/m 3,7 km/h (1 Bft) W-NW 292 0 min 0 min 0,000 mm 0,0 UV-I 0 W/m 9,7 km/h (2 Bft) 100,00 %
23.10.2017 01:05 8,3 C 88 % 1017,3 hPa 0,0 l/m 3,7 km/h (1 Bft) NW 315 0 min 0 min 0,000 mm 0,0 UV-I 0 W/m 12,9 km/h (3 Bft) 100,00 %
23.10.2017 01:00 8,3 C 88 % 1017,4 hPa 0,0 l/m 3,7 km/h (1 Bft) NW 315 0 min 0 min 0,000 mm 0,0 UV-I 0 W/m 9,7 km/h (2 Bft) 100,00 %
23.10.2017 00:55 8,3 C 88 % 1017,3 hPa 0,0 l/m 3,7 km/h (1 Bft) NW 315 0 min 0 min 0,000 mm 0,0 UV-I 0 W/m 12,9 km/h (3 Bft) 100,00 %
23.10.2017 00:50 8,3 C 88 % 1017,3 hPa 0,0 l/m 3,7 km/h (1 Bft) NW 315 0 min 0 min 0,000 mm 0,0 UV-I 0 W/m 11,3 km/h (2 Bft) 100,00 %
23.10.2017 00:45 8,3 C 88 % 1017,3 hPa 0,0 l/m 1,9 km/h (1 Bft) NW 315 0 min 0 min 0,000 mm 0,0 UV-I 0 W/m 8,0 km/h (2 Bft) 100,00 %
23.10.2017 00:40 8,3 C 88 % 1017,2 hPa 0,0 l/m 1,9 km/h (1 Bft) NW 315 0 min 0 min 0,000 mm 0,0 UV-I 0 W/m 11,3 km/h (2 Bft) 100,00 %
23.10.2017 00:35 8,3 C 88 % 1017,2 hPa 0,0 l/m 3,7 km/h (1 Bft) NW 315 0 min 0 min 0,000 mm 0,0 UV-I 0 W/m 12,9 km/h (3 Bft) 100,00 %
23.10.2017 00:30 8,3 C 88 % 1017,3 hPa 0,0 l/m 1,9 km/h (1 Bft) N-NW 337 0 min 0 min 0,000 mm 0,0 UV-I 0 W/m 11,3 km/h (2 Bft) 100,00 %
23.10.2017 00:25 8,3 C 88 % 1017,3 hPa 0,0 l/m 0,0 km/h (0 Bft) W-NW 292 0 min 0 min 0,000 mm 0,0 UV-I 0 W/m 4,8 km/h (1 Bft) 100,00 %
23.10.2017 00:20 8,3 C 88 % 1017,3 hPa 0,0 l/m 1,9 km/h (1 Bft) NW 315 0 min 0 min 0,000 mm 0,0 UV-I 0 W/m 11,3 km/h (2 Bft) 100,00 %
23.10.2017 00:15 8,3 C 88 % 1017,2 hPa 0,0 l/m 1,9 km/h (1 Bft) NW 315 0 min 0 min 0,000 mm 0,0 UV-I 0 W/m 11,3 km/h (2 Bft) 100,00 %
23.10.2017 00:10 8,3 C 88 % 1017,3 hPa 0,0 l/m 1,9 km/h (1 Bft) NW 315 0 min 0 min 0,000 mm 0,0 UV-I 0 W/m 6,4 km/h (2 Bft) 100,00 %
23.10.2017 00:05 8,2 C 88 % 1017,3 hPa 0,0 l/m 0,0 km/h (0 Bft) NW 315 0 min 0 min 0,000 mm 0,0 UV-I 0 W/m 4,8 km/h (1 Bft) 100,00 %
23.10.2017 00:00 8,2 C 88 % 1017,5 hPa 0,0 l/m 1,9 km/h (1 Bft) NW 315 0 min 0 min 0,000 mm 0,0 UV-I 0 W/m 9,7 km/h (2 Bft) 100,00 %
22.10.2017 23:55 8,2 C 88 % 1017,4 hPa 0,0 l/m 1,9 km/h (1 Bft) NW 315 0 min 0 min 0,000 mm 0,0 UV-I 0 W/m 6,4 km/h (2 Bft) 100,00 %
22.10.2017 23:50 8,3 C 87 % 1017,5 hPa 0,0 l/m 0,0 km/h (0 Bft) W-NW 292 0 min 0 min 0,000 mm 0,0 UV-I 0 W/m 4,8 km/h (1 Bft) 100,00 %
22.10.2017 23:45 8,3 C 87 % 1017,4 hPa 0,0 l/m 0,0 km/h (0 Bft) NW 315 0 min 0 min 0,000 mm 0,0 UV-I 0 W/m 3,2 km/h (1 Bft) 84,21 %
22.10.2017 23:40 8,3 C 87 % 1017,4 hPa 0,0 l/m 0,0 km/h (0 Bft) NW 315 0 min 0 min 0,000 mm 0,0 UV-I 0 W/m 3,2 km/h (1 Bft) 100,00 %
22.10.2017 23:35 8,3 C 87 % 1017,4 hPa 0,0 l/m 1,9 km/h (1 Bft) NW 315 0 min 0 min 0,000 mm 0,0 UV-I 0 W/m 6,4 km/h (2 Bft) 100,00 %
22.10.2017 23:30 8,3 C 87 % 1017,5 hPa 0,0 l/m 1,9 km/h (1 Bft) NW 315 0 min 0 min 0,000 mm 0,0 UV-I 0 W/m 8,0 km/h (2 Bft) 100,00 %
22.10.2017 23:25 8,3 C 86 % 1017,6 hPa 0,0 l/m 1,9 km/h (1 Bft) W-NW 292 0 min 0 min 0,000 mm 0,0 UV-I 0 W/m 8,0 km/h (2 Bft) 100,00 %
22.10.2017 23:20 8,4 C 86 % 1017,7 hPa 0,0 l/m 0,0 km/h (0 Bft) NW 315 0 min 0 min 0,000 mm 0,0 UV-I 0 W/m 6,4 km/h (2 Bft) 100,00 %
22.10.2017 23:15 8,4 C 85 % 1017,7 hPa 0,0 l/m 0,0 km/h (0 Bft) N-NW 337 0 min 0 min 0,000 mm 0,0 UV-I 0 W/m 4,8 km/h (1 Bft) 100,00 %
22.10.2017 23:10 8,5 C 85 % 1017,7 hPa 0,0 l/m 1,9 km/h (1 Bft) NW 315 0 min 0 min 0,000 mm 0,0 UV-I 0 W/m 6,4 km/h (2 Bft) 100,00 %
22.10.2017 23:05 8,6 C 84 % 1017,8 hPa 0,0 l/m 0,0 km/h (0 Bft) NW 315 0 min 0 min 0,000 mm 0,0 UV-I 0 W/m 8,0 km/h (2 Bft) 100,00 %
22.10.2017 23:00 8,6 C 84 % 1017,7 hPa 0,0 l/m 0,0 km/h (0 Bft) NW 315 0 min 0 min 0,025 mm 0,0 UV-I 0 W/m 6,4 km/h (2 Bft) 100,00 %
22.10.2017 22:55 8,7 C 84 % 1017,7 hPa 0,0 l/m 0,0 km/h (0 Bft) NW 315 0 min 0 min 0,000 mm 0,0 UV-I 0 W/m 6,4 km/h (2 Bft) 100,00 %
22.10.2017 22:50 8,7 C 83 % 1017,7 hPa 0,0 l/m 1,9 km/h (1 Bft) N-NW 337 0 min 0 min 0,000 mm 0,0 UV-I 0 W/m 9,7 km/h (2 Bft) 100,00 %
22.10.2017 22:45 8,8 C 83 % 1017,8 hPa 0,0 l/m 1,9 km/h (1 Bft) N-NW 337 0 min 0 min 0,000 mm 0,0 UV-I 0 W/m 8,0 km/h (2 Bft) 100,00 %
22.10.2017 22:40 8,9 C 83 % 1017,9 hPa 0,0 l/m 0,0 km/h (0 Bft) N 360 0 min 0 min 0,000 mm 0,0 UV-I 0 W/m 3,2 km/h (1 Bft) 100,00 %
22.10.2017 22:35 8,9 C 82 % 1017,9 hPa 0,0 l/m 1,9 km/h (1 Bft) N-NW 337 0 min 0 min 0,000 mm 0,0 UV-I 0 W/m 8,0 km/h (2 Bft) 100,00 %
22.10.2017 22:30 9,0 C 82 % 1018,0 hPa 0,0 l/m 1,9 km/h (1 Bft) NW 315 0 min 0 min 0,000 mm 0,0 UV-I 0 W/m 8,0 km/h (2 Bft) 100,00 %
22.10.2017 22:25 9,1 C 81 % 1018,0 hPa 0,0 l/m 1,9 km/h (1 Bft) NW 315 0 min 0 min 0,000 mm 0,0 UV-I 0 W/m 8,0 km/h (2 Bft) 100,00 %
22.10.2017 22:20 9,2 C 81 % 1018,0 hPa 0,0 l/m 3,7 km/h (1 Bft) W-NW 292 0 min 0 min 0,000 mm 0,0 UV-I 0 W/m 11,3 km/h (2 Bft) 100,00 %
22.10.2017 22:15 9,2 C 81 % 1017,9 hPa 0,0 l/m 1,9 km/h (1 Bft) NW 315 0 min 0 min 0,000 mm 0,0 UV-I 0 W/m 8,0 km/h (2 Bft) 100,00 %
22.10.2017 22:10 9,3 C 81 % 1017,9 hPa 0,0 l/m 0,0 km/h (0 Bft) S-SW 202 0 min 0 min 0,000 mm 0,0 UV-I 0 W/m 6,4 km/h (2 Bft) 100,00 %
22.10.2017 22:05 9,3 C 81 % 1017,9 hPa 0,0 l/m 1,9 km/h (1 Bft) NW 315 0 min 0 min 0,000 mm 0,0 UV-I 0 W/m 8,0 km/h (2 Bft) 100,00 %
22.10.2017 22:00 9,3 C 80 % 1017,8 hPa 0,0 l/m 3,7 km/h (1 Bft) NW 315 0 min 0 min 0,000 mm 0,0 UV-I 0 W/m 12,9 km/h (3 Bft) 100,00 %
22.10.2017 21:55 9,3 C 82 % 1017,8 hPa 0,0 l/m 3,7 km/h (1 Bft) NW 315 0 min 0 min 0,000 mm 0,0 UV-I 0 W/m 11,3 km/h (2 Bft) 100,00 %
22.10.2017 21:50 9,3 C 83 % 1017,8 hPa 0,0 l/m 3,7 km/h (1 Bft) NW 315 0 min 0 min 0,000 mm 0,0 UV-I 0 W/m 14,5 km/h (3 Bft) 100,00 %
22.10.2017 21:45 9,3 C 84 % 1017,6 hPa 0,0 l/m 3,7 km/h (1 Bft) NW 315 0 min 0 min 0,000 mm 0,0 UV-I 0 W/m 9,7 km/h (2 Bft) 100,00 %
22.10.2017 21:40 9,2 C 85 % 1017,6 hPa 0,0 l/m 3,7 km/h (1 Bft) NW 315 0 min 0 min 0,000 mm 0,0 UV-I 0 W/m 11,3 km/h (2 Bft) 100,00 %
22.10.2017 21:35 9,2 C 86 % 1017,6 hPa 0,0 l/m 1,9 km/h (1 Bft) NW 315 0 min 0 min 0,000 mm 0,0 UV-I 0 W/m 6,4 km/h (2 Bft) 100,00 %
22.10.2017 21:30 9,2 C 86 % 1017,5 hPa 0,0 l/m 1,9 km/h (1 Bft) NW 315 0 min 0 min 0,000 mm 0,0 UV-I 0 W/m 8,0 km/h (2 Bft) 100,00 %
22.10.2017 21:25 9,1 C 86 % 1017,4 hPa 0,0 l/m 1,9 km/h (1 Bft) NW 315 0 min 0 min 0,000 mm 0,0 UV-I 0 W/m 8,0 km/h (2 Bft) 100,00 %
22.10.2017 21:20 9,1 C 87 % 1017,3 hPa 0,0 l/m 1,9 km/h (1 Bft) NW 315 0 min 0 min 0,000 mm 0,0 UV-I 0 W/m 8,0 km/h (2 Bft) 100,00 %
22.10.2017 21:15 8,9 C 88 % 1017,2 hPa 0,0 l/m 0,0 km/h (0 Bft) NW 315 0 min 0 min 0,000 mm 0,0 UV-I 0 W/m 4,8 km/h (1 Bft) 100,00 %
22.10.2017 21:10 8,9 C 88 % 1017,2 hPa 0,0 l/m 0,0 km/h (0 Bft) S-SW 202 0 min 0 min 0,000 mm 0,0 UV-I 0 W/m 6,4 km/h (2 Bft) 100,00 %
22.10.2017 21:05 8,8 C 88 % 1017,2 hPa 0,0 l/m 0,0 km/h (0 Bft) S-SO 157 0 min 0 min 0,000 mm 0,0 UV-I 0 W/m 1,6 km/h (1 Bft) 100,00 %
22.10.2017 21:00 8,8 C 89 % 1017,3 hPa 0,0 l/m 0,0 km/h (0 Bft) NW 315 0 min 0 min 0,000 mm 0,0 UV-I 0 W/m 1,6 km/h (1 Bft) 100,00 %
22.10.2017 20:55 8,8 C 89 % 1017,1 hPa 0,0 l/m 1,9 km/h (1 Bft) W-NW 292 0 min 0 min 0,000 mm 0,0 UV-I 0 W/m 4,8 km/h (1 Bft) 100,00 %
22.10.2017 20:50 8,7 C 89 % 1017,2 hPa 0,0 l/m 0,0 km/h (0 Bft) N-NW 337 0 min 0 min 0,000 mm 0,0 UV-I 0 W/m 3,2 km/h (1 Bft) 100,00 %
22.10.2017 20:45 8,7 C 89 % 1017,3 hPa 0,0 l/m 0,0 km/h (0 Bft) N 0 0 min 0 min 0,000 mm 0,0 UV-I 0 W/m 0,0 km/h (0 Bft) 100,00 %
22.10.2017 20:40 8,8 C 88 % 1017,3 hPa 0,0 l/m 0,0 km/h (0 Bft) N-NW 337 0 min 0 min 0,000 mm 0,0 UV-I 0 W/m 1,6 km/h (1 Bft) 100,00 %
22.10.2017 20:35 8,8 C 88 % 1017,3 hPa 0,0 l/m 0,0 km/h (0 Bft) N 0 0 min 0 min 0,000 mm 0,0 UV-I 0 W/m 0,0 km/h (0 Bft) 100,00 %
22.10.2017 20:30 8,9 C 88 % 1017,3 hPa 0,0 l/m 0,0 km/h (0 Bft) N 0 0 min 0 min 0,000 mm 0,0 UV-I 0 W/m 0,0 km/h (0 Bft) 100,00 %
22.10.2017 20:25 8,9 C 87 % 1017,3 hPa 0,0 l/m 0,0 km/h (0 Bft) N 0 0 min 0 min 0,000 mm 0,0 UV-I 0 W/m 0,0 km/h (0 Bft) 100,00 %
22.10.2017 20:20 9,1 C 87 % 1017,3 hPa 0,0 l/m 0,0 km/h (0 Bft) N 0 0 min 0 min 0,000 mm 0,0 UV-I 0 W/m 0,0 km/h (0 Bft) 100,00 %
22.10.2017 20:15 9,1 C 87 % 1017,4 hPa 0,0 l/m 0,0 km/h (0 Bft) N 0 0 min 0 min 0,000 mm 0,0 UV-I 0 W/m 0,0 km/h (0 Bft) 100,00 %
22.10.2017 20:10 9,2 C 87 % 1017,4 hPa 0,0 l/m 0,0 km/h (0 Bft) N 0 0 min 0 min 0,000 mm 0,0 UV-I 0 W/m 0,0 km/h (0 Bft) 100,00 %
22.10.2017 20:05 9,2 C 87 % 1017,4 hPa 0,0 l/m 0,0 km/h (0 Bft) N 0 0 min 0 min 0,000 mm 0,0 UV-I 0 W/m 0,0 km/h (0 Bft) 100,00 %
22.10.2017 20:00 9,3 C 86 % 1017,3 hPa 0,0 l/m 0,0 km/h (0 Bft) N 0 0 min 0 min 0,000 mm 0,0 UV-I 0 W/m 0,0 km/h (0 Bft) 100,00 %
22.10.2017 19:55 9,4 C 86 % 1017,2 hPa 0,0 l/m 0,0 km/h (0 Bft) N 0 0 min 0 min 0,000 mm 0,0 UV-I 0 W/m 0,0 km/h (0 Bft) 100,00 %
22.10.2017 19:50 9,4 C 86 % 1017,2 hPa 0,0 l/m 0,0 km/h (0 Bft) N 0 0 min 0 min 0,000 mm 0,0 UV-I 0 W/m 0,0 km/h (0 Bft) 100,00 %
22.10.2017 19:45 9,6 C 85 % 1017,1 hPa 0,0 l/m 0,0 km/h (0 Bft) N 0 0 min 0 min 0,000 mm 0,0 UV-I 0 W/m 0,0 km/h (0 Bft) 100,00 %
22.10.2017 19:40 9,6 C 85 % 1017,2 hPa 0,0 l/m 0,0 km/h (0 Bft) N 0 0 min 0 min 0,000 mm 0,0 UV-I 0 W/m 0,0 km/h (0 Bft) 100,00 %
22.10.2017 19:35 9,7 C 85 % 1017,1 hPa 0,0 l/m 0,0 km/h (0 Bft) N 0 0 min 0 min 0,000 mm 0,0 UV-I 0 W/m 0,0 km/h (0 Bft) 100,00 %
22.10.2017 19:30 9,7 C 85 % 1017,2 hPa 0,0 l/m 0,0 km/h (0 Bft) N-NW 345 0 min 0 min 0,000 mm 0,0 UV-I 0 W/m 0,0 km/h (0 Bft) 100,00 %
22.10.2017 19:20 9,8 C 85 % 1017,2 hPa 0,0 l/m 0,0 km/h (0 Bft) N-NW 345 0 min 0 min 0,000 mm 0,0 UV-I 0 W/m 0,0 km/h (0 Bft) 100,00 %
22.10.2017 19:10 9,9 C 85 % 1017,1 hPa 0,0 l/m 0,0 km/h (0 Bft) N-NW 345 0 min 0 min 0,000 mm 0,0 UV-I 0 W/m 0,0 km/h (0 Bft) 99,57 %
22.10.2017 19:00 10,0 C 85 % 1017,2 hPa 0,0 l/m 0,0 km/h (0 Bft) N-NW 345 0 min 0 min 0,000 mm 0,0 UV-I 0 W/m 1,9 km/h (1 Bft) 99,57 %
22.10.2017 18:50 10,2 C 84 % 1017,0 hPa 0,0 l/m 0,6 km/h (0 Bft) N-NW 345 0 min 0 min 0,000 mm 0,0 UV-I 0 W/m 9,3 km/h (2 Bft) 100,00 %
22.10.2017 18:40 10,3 C 84 % 1017,0 hPa 0,0 l/m 0,2 km/h (0 Bft) S 184 0 min 0 min 0,000 mm 0,0 UV-I 0 W/m 5,6 km/h (1 Bft) 99,57 %
22.10.2017 18:30 10,7 C 82 % 1016,8 hPa 0,0 l/m 0,0 km/h (0 Bft) S 184 0 min 0 min 0,000 mm 0,0 UV-I 0 W/m 0,0 km/h (0 Bft) 100,00 %
22.10.2017 18:20 10,8 C 82 % 1016,6 hPa 0,0 l/m 0,0 km/h (0 Bft) S 184 0 min 0 min 0,001 mm 0,0 UV-I 0 W/m 1,9 km/h (1 Bft) 100,00 %
22.10.2017 18:10 10,9 C 81 % 1016,5 hPa 0,0 l/m 0,1 km/h (0 Bft) S 184 0 min 0 min 0,025 mm 0,0 UV-I 0 W/m 3,7 km/h (1 Bft) 100,00 %
22.10.2017 18:00 11,1 C 80 % 1016,6 hPa 0,0 l/m 0,1 km/h (0 Bft) S 183 0 min 0 min 0,000 mm 0,0 UV-I 1 W/m 5,6 km/h (1 Bft) 99,57 %
_ Min-Zeit 02:25 18:00 18:10 - 18:20 - - - - - - - 18:30 08:45
Minimum _ 7,9 C 80 % 1016,5 hPa - 0,0 km/h (0 Bft) - - - - - - - 0,0 km/h (0 Bft) 83,33 %
_ Max-Zeit 18:00 02:10 17:10 12:00 15:40 - - 12:50 11:40 13:10 12:50 12:50 10:40 18:10
Maximum _ 11,1 C 92 % 1020,9 hPa 0,4 l/m 13,3 km/h
N-NW (3 Bft)
- - 10 min 10 min 0,076 mm 1,4 UV-I 224 W/m 31,8 km/h
N-NW (5 Bft)
100,00 %
Durchschnitt _ 8,9 C 87 % 1018,1 hPa #2,2 l/m 3,9 km/h (1 Bft) NW - #20 min. #1:20 h #0,381 mm 0,7 UV-I 36 W/m 12,0 km/h (2 Bft) 99,60 %